Year,Month,Day,Hour,Minute,Value (Times are PST for temperature in C)
2016,11,12,10,18,12.00
2016,11,12,10,19,12.00
2016,11,12,10,20,12.00
2016,11,12,10,21,12.00
2016,11,12,10,22,12.00
2016,11,12,10,23,12.00
2016,11,12,10,24,12.10
2016,11,12,10,25,12.10
2016,11,12,10,26,12.10
2016,11,12,10,27,12.10
2016,11,12,10,28,12.10
2016,11,12,10,29,12.20
2016,11,12,10,30,12.20
2016,11,12,10,31,12.20
2016,11,12,10,32,12.30
2016,11,12,10,33,12.30
2016,11,12,10,34,12.30
2016,11,12,10,35,12.30
2016,11,12,10,36,12.40
2016,11,12,10,37,12.40
2016,11,12,10,38,12.40
2016,11,12,10,39,12.40
2016,11,12,10,40,12.40
2016,11,12,10,41,12.50
2016,11,12,10,42,12.50
2016,11,12,10,43,12.50
2016,11,12,10,44,12.50
2016,11,12,10,45,12.50
2016,11,12,10,46,12.50
2016,11,12,10,47,12.50
2016,11,12,10,48,12.50
2016,11,12,10,49,12.50
2016,11,12,10,50,12.50
2016,11,12,10,51,12.50
2016,11,12,10,52,12.60
2016,11,12,10,53,12.60
2016,11,12,10,54,12.60
2016,11,12,10,55,12.60
2016,11,12,10,56,12.60
2016,11,12,10,57,12.60
2016,11,12,10,58,12.60
2016,11,12,10,59,12.60
2016,11,12,11,00,12.60
2016,11,12,11,01,12.60
2016,11,12,11,02,12.60
2016,11,12,11,03,12.60
2016,11,12,11,04,12.60
2016,11,12,11,05,12.60
2016,11,12,11,06,12.60
2016,11,12,11,07,12.60
2016,11,12,11,08,12.60
2016,11,12,11,09,12.60
2016,11,12,11,10,12.60
2016,11,12,11,11,12.60
2016,11,12,11,12,12.50
2016,11,12,11,13,12.50
2016,11,12,11,14,12.50
2016,11,12,11,15,12.50
2016,11,12,11,16,12.50
2016,11,12,11,17,12.50
2016,11,12,11,18,12.40
2016,11,12,11,19,12.40
2016,11,12,11,20,12.40
2016,11,12,11,21,12.40
2016,11,12,11,22,12.40
2016,11,12,11,23,12.30
2016,11,12,11,24,12.30
2016,11,12,11,25,12.30
2016,11,12,11,26,12.30
2016,11,12,11,27,12.30
2016,11,12,11,28,12.30
2016,11,12,11,29,12.30
2016,11,12,11,30,12.30
2016,11,12,11,31,12.30
2016,11,12,11,32,12.20
2016,11,12,11,33,12.20
2016,11,12,11,34,12.20
2016,11,12,11,35,12.20
2016,11,12,11,36,12.20
2016,11,12,11,37,12.10
2016,11,12,11,38,12.10
2016,11,12,11,39,12.10
2016,11,12,11,40,12.10
2016,11,12,11,41,12.10
2016,11,12,11,42,12.00
2016,11,12,11,43,11.90
2016,11,12,11,44,11.90
2016,11,12,11,45,11.90
2016,11,12,11,46,11.80
2016,11,12,11,47,11.80
2016,11,12,11,48,11.80
2016,11,12,11,49,11.70
2016,11,12,11,50,11.70
2016,11,12,11,51,11.70
2016,11,12,11,52,11.60
2016,11,12,11,53,11.60
2016,11,12,11,54,11.60
2016,11,12,11,55,11.60
2016,11,12,11,56,11.60
2016,11,12,11,57,11.60
2016,11,12,11,58,11.60
2016,11,12,11,59,11.60
2016,11,12,12,00,11.60
2016,11,12,12,01,11.60
2016,11,12,12,02,11.60
2016,11,12,12,03,11.60
2016,11,12,12,04,11.50
2016,11,12,12,05,11.50
2016,11,12,12,06,11.50
2016,11,12,12,07,11.50
2016,11,12,12,08,11.40
2016,11,12,12,09,11.40
2016,11,12,12,10,11.40
2016,11,12,12,11,11.40
2016,11,12,12,12,11.40
2016,11,12,12,13,11.40
2016,11,12,12,14,11.40
2016,11,12,12,15,11.40
2016,11,12,12,16,11.40
2016,11,12,12,17,11.40
2016,11,12,12,18,11.40
2016,11,12,12,19,11.30
2016,11,12,12,20,11.30
2016,11,12,12,21,11.30
2016,11,12,12,22,11.30
2016,11,12,12,23,11.40
2016,11,12,12,24,11.40
2016,11,12,12,25,11.40
2016,11,12,12,26,11.40
2016,11,12,12,27,11.50
2016,11,12,12,28,11.50
2016,11,12,12,29,11.60
2016,11,12,12,30,11.60
2016,11,12,12,31,11.60
2016,11,12,12,32,11.60
2016,11,12,12,33,11.70
2016,11,12,12,34,11.70
2016,11,12,12,35,11.70
2016,11,12,12,36,11.70
2016,11,12,12,37,11.80
2016,11,12,12,38,11.80
2016,11,12,12,39,11.80
2016,11,12,12,40,11.80
2016,11,12,12,41,11.80
2016,11,12,12,42,11.80
2016,11,12,12,43,11.80
2016,11,12,12,44,11.80
2016,11,12,12,45,11.80
2016,11,12,12,46,11.80
2016,11,12,12,47,11.80
2016,11,12,12,48,11.80
2016,11,12,12,49,11.80
2016,11,12,12,50,11.80
2016,11,12,12,51,11.80
2016,11,12,12,52,11.80
2016,11,12,12,53,11.80
2016,11,12,12,54,11.80
2016,11,12,12,55,11.80
2016,11,12,12,56,11.80
2016,11,12,12,57,11.90
2016,11,12,12,58,11.90
2016,11,12,12,59,11.90
2016,11,12,13,00,11.90
2016,11,12,13,01,11.90
2016,11,12,13,02,11.90
2016,11,12,13,03,11.80
2016,11,12,13,04,11.80
2016,11,12,13,05,11.90
2016,11,12,13,06,11.80
2016,11,12,13,07,11.80
2016,11,12,13,08,11.80
2016,11,12,13,09,11.90
2016,11,12,13,10,11.80
2016,11,12,13,11,11.80
2016,11,12,13,12,11.80
2016,11,12,13,13,11.80
2016,11,12,13,14,11.80
2016,11,12,13,15,11.90
2016,11,12,13,16,11.90
2016,11,12,13,17,11.90
2016,11,12,13,18,11.90
2016,11,12,13,19,11.90
2016,11,12,13,20,11.90
2016,11,12,13,21,11.90
2016,11,12,13,22,11.90
2016,11,12,13,23,11.80
2016,11,12,13,24,11.80
2016,11,12,13,25,11.80
2016,11,12,13,26,11.80
2016,11,12,13,27,11.80
2016,11,12,13,28,11.80
2016,11,12,13,29,11.80
2016,11,12,13,30,11.80
2016,11,12,13,31,11.80
2016,11,12,13,32,11.80
2016,11,12,13,33,11.80
2016,11,12,13,34,11.80
2016,11,12,13,35,11.80
2016,11,12,13,36,11.80
2016,11,12,13,37,11.80
2016,11,12,13,38,11.90
2016,11,12,13,39,11.90
2016,11,12,13,40,11.90
2016,11,12,13,41,11.90
2016,11,12,13,42,11.90
2016,11,12,13,43,12.00
2016,11,12,13,44,11.90
2016,11,12,13,45,11.90
2016,11,12,13,46,11.90
2016,11,12,13,47,11.90
2016,11,12,13,48,11.90
2016,11,12,13,49,11.90
2016,11,12,13,50,11.90
2016,11,12,13,51,11.90
2016,11,12,13,52,11.90
2016,11,12,13,53,11.90
2016,11,12,13,54,11.90
2016,11,12,13,55,11.90
2016,11,12,13,56,11.90
2016,11,12,13,57,11.90
2016,11,12,13,58,11.90
2016,11,12,13,59,12.00
2016,11,12,14,00,12.00
2016,11,12,14,01,12.00
2016,11,12,14,02,12.00
2016,11,12,14,03,12.00
2016,11,12,14,04,12.10
2016,11,12,14,05,12.10
2016,11,12,14,06,12.20
2016,11,12,14,07,12.20
2016,11,12,14,08,12.20
2016,11,12,14,09,12.30
2016,11,12,14,10,12.30
2016,11,12,14,11,12.30
2016,11,12,14,12,12.30
2016,11,12,14,13,12.30
2016,11,12,14,14,12.30
2016,11,12,14,15,12.30
2016,11,12,14,16,12.30
2016,11,12,14,17,12.30
2016,11,12,14,18,12.30
2016,11,12,14,19,12.30
2016,11,12,14,20,12.30
2016,11,12,14,21,12.30
2016,11,12,14,22,12.30
2016,11,12,14,23,12.30
2016,11,12,14,24,12.30
2016,11,12,14,25,12.30
2016,11,12,14,26,12.30
2016,11,12,14,27,12.30
2016,11,12,14,28,12.30
2016,11,12,14,29,12.30
2016,11,12,14,30,12.30
2016,11,12,14,31,12.30
2016,11,12,14,32,12.30
2016,11,12,14,33,12.30
2016,11,12,14,34,12.30
2016,11,12,14,35,12.30
2016,11,12,14,36,12.30
2016,11,12,14,37,12.30
2016,11,12,14,38,12.30
2016,11,12,14,39,12.30
2016,11,12,14,40,12.30
2016,11,12,14,41,12.30
2016,11,12,14,42,12.20
2016,11,12,14,43,12.20
2016,11,12,14,44,12.20
2016,11,12,14,45,12.20
2016,11,12,14,46,12.10
2016,11,12,14,47,12.10
2016,11,12,14,48,12.10
2016,11,12,14,49,12.10
2016,11,12,14,50,12.00
2016,11,12,14,51,12.00
2016,11,12,14,52,12.00
2016,11,12,14,53,11.90
2016,11,12,14,54,11.90
2016,11,12,14,55,11.90
2016,11,12,14,56,11.90
2016,11,12,14,57,11.90
2016,11,12,14,58,11.90
2016,11,12,14,59,11.90
2016,11,12,15,00,11.90
2016,11,12,15,01,11.90
2016,11,12,15,02,11.90
2016,11,12,15,03,11.90
2016,11,12,15,04,11.90
2016,11,12,15,05,11.90
2016,11,12,15,06,11.90
2016,11,12,15,07,11.90
2016,11,12,15,08,11.90
2016,11,12,15,09,11.90
2016,11,12,15,10,11.90
2016,11,12,15,11,11.90
2016,11,12,15,12,11.90
2016,11,12,15,13,11.90
2016,11,12,15,14,11.90
2016,11,12,15,15,11.90
2016,11,12,15,16,11.90
2016,11,12,15,17,11.90
2016,11,12,15,18,11.90
2016,11,12,15,19,11.90
2016,11,12,15,20,11.90
2016,11,12,15,21,11.90
2016,11,12,15,22,11.90
